Location: Hartford
(41.7640°N, 72.6860°W)
Time: 03:52:31
(UTC-04:00)

ISS - Visible Passes

Search period start: 23 July 2014 00:00
Search period end: 02 August 2014 00:00
Orbit: 413 x 420 km, 51.6° (Epoch: 23 July)

Date Brightness Start Highest point End Pass type
(mag) Time Alt. Az. Time Alt. Az. Time Alt. Az.
23 Jul -1.0 02:15:43 22° ENE 02:15:43 22° ENE 02:17:03 10° ENE visible
23 Jul -1.3 03:48:36 14° WNW 03:50:42 24° NNW 03:53:32 10° NE visible
24 Jul -1.9 03:01:45 32° NW 03:02:02 33° NNW 03:05:08 10° NE visible
24 Jul -0.5 04:37:24 10° NW 04:39:32 16° N 04:41:41 10° NE visible
25 Jul -1.2 02:14:53 28° NNE 02:14:53 28° NNE 02:16:43 10° NE visible
25 Jul -0.6 03:48:27 10° NW 03:50:47 17° N 03:53:07 10° NNE visible
26 Jul -0.1 01:27:59 12° NE 01:27:59 12° NE 01:28:15 10° NE visible
26 Jul -0.9 03:00:52 17° NW 03:02:03 20° NNW 03:04:38 10° NE visible
26 Jul -0.4 04:37:36 10° NW 04:39:43 16° N 04:41:51 10° NE visible
27 Jul -0.9 02:13:57 24° N 02:13:57 24° N 02:16:13 10° NE visible
27 Jul -0.3 03:48:53 10° NW 03:50:57 15° N 03:53:01 10° NE visible
28 Jul -0.3 01:27:02 15° NE 01:27:02 15° NE 01:27:49 10° NE visible
28 Jul -0.3 03:00:01 10° NW 03:02:10 16° N 03:04:19 10° NE visible
28 Jul -0.5 04:37:19 10° NW 04:39:51 19° NNE 04:42:23 10° ENE visible
29 Jul -0.6 02:13:00 17° NNW 02:13:24 18° N 02:15:46 10° NNE visible
29 Jul -0.3 03:48:49 10° NNW 03:51:06 17° N 03:53:23 10° NE visible
30 Jul -0.2 01:26:06 16° NNE 01:26:06 16° NNE 01:27:17 10° NE visible
30 Jul -0.2 03:00:13 10° NW 03:02:20 15° N 03:04:26 10° NE visible
30 Jul -1.2 04:36:48 10° NW 04:39:51 31° NNE 04:42:53 10° E visible
31 Jul -0.2 02:12:08 12° NNW 02:13:32 15° N 02:15:36 10° NE visible
31 Jul -0.7 03:48:24 10° NW 03:51:10 23° NNE 03:53:56 10° ENE visible
01 Aug -0.1 01:25:23 15° N 01:25:23 15° N 01:26:55 10° NNE visible
01 Aug -0.4 02:59:57 10° NW 03:02:26 19° NNE 03:04:56 10° ENE visible
01 Aug -2.8 04:36:19 10° NW 04:39:40 66° NNE 04:43:00 10° ESE visible
